Fulton Cnty AP, Rochester, IN, IN

7:43 AM EDT on April 23, 2017 (GMT -0400)
Fulton County

Weather History for KRCR - June, 2014

Change the Weather History Date:

Tuesday, June 17, 2014

  Actual Average Record
Temperature  
Mean Temperature 83 °F -  
Max Temperature 91 °F 78 °F 91 °F (2014)
Min Temperature 75 °F 56 °F 60 °F (2016)
Cooling Degree Days 18    
Growing Degree Days 33 (Base 50)    
Moisture  
Dew Point 69 °F    
Average Humidity 62    
Maximum Humidity 74    
Minimum Humidity 49    
Precipitation  
Precipitation 0.00 in - - ()
Sea Level Pressure  
Sea Level Pressure 29.96 in    
Wind  
Wind Speed 10 mph (SSW)    
Max Wind Speed 21 mph    
Max Gust Speed 32 mph    
Visibility 10 miles    
Events      
Averages and records for this station are not official NWS values.
T = Trace of Precipitation, MM = Missing Value Source: NWS Daily Summary

Daily Weather History Graph

Daily Weather History Graph

Search for Another Location

Airport or City:

Trip Planner

Search our weather history database for the weather conditions in past years. The results will help you decide how hot, cold, wet, or windy it might be!

Date:

Astronomy

Jun. 17, 2014 Rise Set
Actual Time 6:11 AM EDT 9:19 PM EDT
Civil Twilight 5:38 AM EDT 9:53 PM EDT
Nautical Twilight 4:55 AM EDT 10:36 PM EDT
Astronomical Twilight 4:03 AM EDT 11:27 PM EDT
Moon 12:08 AM EDT (6/17) 11:27 AM EDT (6/17)
Length of Visible Light 16h 15m
Length of Day
15h 07m
Waning Gibbous, 73% of the Moon is Illuminated
Jun 17
Waning Gibbous
Jun 19
Last Quarter
Jun 27
New
Jul 5
First Quarter
Jul 12
Full

Hourly Weather History & Observations

Time (EDT) Temp. Heat Index Dew Point Humidity Pressure Visibility Wind Dir Wind Speed Gust Speed Precip Events Conditions
12:15 AM 78.8 °F - 69.8 °F 74% 30.00 in 10.0 mi SSE 5.8 mph - N/A   Clear
12:35 AM 78.8 °F - 69.8 °F 74% 29.98 in 10.0 mi SSE 8.1 mph - N/A   Clear
12:55 AM 78.8 °F - 69.8 °F 74% 29.98 in 10.0 mi South 8.1 mph - N/A   Clear
1:15 AM 78.8 °F - 69.8 °F 74% 29.98 in 10.0 mi South 6.9 mph - N/A   Clear
1:35 AM 78.8 °F - 69.8 °F 74% 29.98 in 10.0 mi South 6.9 mph - N/A   Clear
2:15 AM 78.8 °F - 69.8 °F 74% 29.97 in 10.0 mi South 8.1 mph - N/A   Clear
2:35 AM 77.0 °F - 68.0 °F 74% 29.98 in 10.0 mi South 8.1 mph - N/A   Clear
2:55 AM 77.0 °F - 68.0 °F 74% 29.98 in 10.0 mi South 6.9 mph - N/A   Clear
3:15 AM 77.0 °F - 68.0 °F 74% 29.98 in 10.0 mi South 6.9 mph - N/A   Clear
3:35 AM 77.0 °F - 68.0 °F 74% 29.98 in 10.0 mi South 6.9 mph - N/A   Clear
3:55 AM 77.0 °F - 68.0 °F 74% 29.99 in 10.0 mi South 4.6 mph - N/A   Clear
4:15 AM 77.0 °F - 68.0 °F 74% 30.00 in 10.0 mi SSW 4.6 mph - N/A   Clear
4:35 AM 77.0 °F - 68.0 °F 74% 30.01 in 10.0 mi SSW 5.8 mph - N/A   Scattered Clouds
4:55 AM 77.0 °F - 68.0 °F 74% 30.01 in 10.0 mi South 5.8 mph - N/A   Mostly Cloudy
5:15 AM 77.0 °F - 68.0 °F 74% 30.01 in 10.0 mi South 6.9 mph - N/A   Scattered Clouds
5:35 AM 77.0 °F - 68.0 °F 74% 30.01 in 10.0 mi South 6.9 mph - N/A   Clear
5:55 AM 75.2 °F - 66.2 °F 73% 30.00 in 10.0 mi South 8.1 mph - N/A   Clear
6:15 AM 75.2 °F - 66.2 °F 73% 29.98 in 10.0 mi South 9.2 mph - N/A   Clear
6:35 AM 77.0 °F - 66.2 °F 69% 29.98 in 10.0 mi South 10.4 mph 16.1 mph N/A   Clear
6:55 AM 77.0 °F - 66.2 °F 69% 29.98 in 10.0 mi South 10.4 mph 16.1 mph N/A   Clear
7:15 AM 77.0 °F - 66.2 °F 69% 29.99 in 10.0 mi SSW 10.4 mph 18.4 mph N/A   Clear
7:35 AM 77.0 °F - 66.2 °F 69% 30.00 in 10.0 mi SSW 11.5 mph 18.4 mph N/A   Clear
7:55 AM 78.8 °F - 68.0 °F 69% 30.00 in 10.0 mi SSW 11.5 mph 20.7 mph N/A   Clear
8:35 AM 78.8 °F - 68.0 °F 69% 29.99 in 10.0 mi SSW 15.0 mph 20.7 mph N/A   Clear
8:55 AM 80.6 °F 83.2 °F 68.0 °F 65% 30.00 in 10.0 mi SSW 15.0 mph 20.7 mph N/A   Scattered Clouds
9:15 AM 80.6 °F 83.2 °F 68.0 °F 65% 30.00 in 10.0 mi SW 16.1 mph 23.0 mph N/A   Scattered Clouds
9:35 AM 80.6 °F 83.2 °F 68.0 °F 65% 30.00 in 10.0 mi SW 18.4 mph 24.2 mph N/A   Clear
9:55 AM 82.4 °F 85.4 °F 68.0 °F 62% 30.00 in 10.0 mi SW 15.0 mph 25.3 mph N/A   Clear
10:15 AM 84.2 °F 88.4 °F 69.8 °F 62% 29.99 in 10.0 mi SW 11.5 mph 24.2 mph N/A   Clear
10:35 AM 84.2 °F 88.4 °F 69.8 °F 62% 29.98 in 10.0 mi SW 16.1 mph 25.3 mph N/A   Scattered Clouds
10:55 AM 86.0 °F 90.4 °F 69.8 °F 58% 29.98 in 7.0 mi WSW 20.7 mph 29.9 mph N/A   Clear
11:15 AM 86.0 °F 90.4 °F 69.8 °F 58% 29.97 in 10.0 mi SW 16.1 mph 29.9 mph N/A   Clear
11:35 AM 86.0 °F 90.4 °F 69.8 °F 58% 29.95 in 10.0 mi SSW 16.1 mph 27.6 mph N/A   Scattered Clouds
11:55 AM 86.0 °F 89.4 °F 68.0 °F 55% 29.93 in 10.0 mi SSW 17.3 mph 26.5 mph N/A   Scattered Clouds
12:15 PM 86.0 °F 89.4 °F 68.0 °F 55% 29.92 in 10.0 mi SW 18.4 mph 25.3 mph N/A   Clear
12:35 PM 86.0 °F 89.4 °F 68.0 °F 55% 29.90 in 10.0 mi SSW 20.7 mph 29.9 mph N/A   Clear
12:55 PM 87.8 °F 92.6 °F 69.8 °F 55% 29.90 in 10.0 mi SSW 18.4 mph 26.5 mph N/A   Clear
1:15 PM 87.8 °F 92.6 °F 69.8 °F 55% 29.90 in 10.0 mi SSW 17.3 mph 28.8 mph N/A   Clear
1:35 PM 89.6 °F 94.7 °F 69.8 °F 52% 29.92 in 10.0 mi SW 19.6 mph 23.0 mph N/A   Clear
1:55 PM 89.6 °F 94.7 °F 69.8 °F 52% 29.93 in 10.0 mi SW 20.7 mph 32.2 mph N/A   Scattered Clouds
2:15 PM 89.6 °F 94.7 °F 69.8 °F 52% 29.92 in 10.0 mi SW 13.8 mph 26.5 mph N/A   Scattered Clouds
2:35 PM 89.6 °F 94.7 °F 69.8 °F 52% 29.93 in 10.0 mi SW 15.0 mph 26.5 mph N/A   Scattered Clouds
2:55 PM 91.4 °F 96.8 °F 69.8 °F 49% 29.93 in 10.0 mi WSW 16.1 mph 25.3 mph N/A   Clear
3:15 PM 89.6 °F 94.7 °F 69.8 °F 52% 29.93 in 10.0 mi SW 12.7 mph 24.2 mph N/A   Scattered Clouds
3:35 PM 89.6 °F 94.7 °F 69.8 °F 52% 29.93 in 10.0 mi SW 15.0 mph 21.9 mph N/A   Scattered Clouds
3:55 PM 89.6 °F 94.7 °F 69.8 °F 52% 29.93 in 10.0 mi WSW 15.0 mph 21.9 mph N/A   Clear
4:15 PM 91.4 °F 96.8 °F 69.8 °F 49% 29.93 in 10.0 mi SW 17.3 mph 25.3 mph N/A   Clear
4:35 PM 91.4 °F 96.8 °F 69.8 °F 49% 29.93 in 10.0 mi SW 11.5 mph 21.9 mph N/A   Clear
4:55 PM 91.4 °F 96.8 °F 69.8 °F 49% 29.93 in 10.0 mi SW 18.4 mph - N/A   Clear
5:15 PM 89.6 °F 94.7 °F 69.8 °F 52% 29.94 in 10.0 mi SW 17.3 mph 23.0 mph N/A   Scattered Clouds
5:35 PM 91.4 °F 96.8 °F 69.8 °F 49% 29.93 in 10.0 mi SW 15.0 mph 24.2 mph N/A   Scattered Clouds
5:55 PM 91.4 °F 96.8 °F 69.8 °F 49% 29.93 in 10.0 mi WSW 12.7 mph 25.3 mph N/A   Scattered Clouds
6:15 PM 91.4 °F 96.8 °F 69.8 °F 49% 29.93 in 10.0 mi SW 13.8 mph 20.7 mph N/A   Scattered Clouds
6:35 PM 89.6 °F 94.7 °F 69.8 °F 52% 29.94 in 10.0 mi SW 11.5 mph 21.9 mph N/A   Clear
6:55 PM 89.6 °F 93.4 °F 68.0 °F 49% 29.93 in 10.0 mi WSW 9.2 mph 23.0 mph N/A   Clear
7:15 PM 89.6 °F 94.7 °F 69.8 °F 52% 29.94 in 10.0 mi SW 11.5 mph 19.6 mph N/A   Scattered Clouds
7:35 PM 89.6 °F 94.7 °F 69.8 °F 52% 29.94 in 10.0 mi SW 10.4 mph - N/A   Scattered Clouds
7:55 PM 89.6 °F 94.7 °F 69.8 °F 52% 29.95 in 10.0 mi SW 10.4 mph 16.1 mph N/A   Scattered Clouds
8:15 PM 87.8 °F 92.6 °F 69.8 °F 55% 29.95 in 10.0 mi SSW 8.1 mph - N/A   Clear
8:35 PM 87.8 °F 92.6 °F 69.8 °F 55% 29.95 in 10.0 mi SW 10.4 mph 17.3 mph N/A   Clear
8:55 PM 86.0 °F 90.4 °F 69.8 °F 58% 29.96 in 10.0 mi SW 8.1 mph - N/A   Clear
9:15 PM 86.0 °F 90.4 °F 69.8 °F 58% 29.95 in 10.0 mi SSW 9.2 mph - N/A   Clear
9:35 PM 84.2 °F 88.4 °F 69.8 °F 62% 29.95 in 10.0 mi SW 6.9 mph - N/A   Clear
9:55 PM 82.4 °F 86.3 °F 69.8 °F 66% 29.96 in 10.0 mi SW 8.1 mph - N/A   Clear
10:15 PM 82.4 °F 86.3 °F 69.8 °F 66% 29.98 in 10.0 mi SW 5.8 mph - N/A   Clear
10:35 PM 82.4 °F 85.4 °F 68.0 °F 62% 29.98 in 10.0 mi SW 8.1 mph - N/A   Clear
10:55 PM 82.4 °F 85.4 °F 68.0 °F 62% 29.98 in 10.0 mi SW 8.1 mph - N/A   Clear
11:15 PM 82.4 °F 85.4 °F 68.0 °F 62% 29.98 in 10.0 mi SW 8.1 mph - N/A   Clear
11:35 PM 80.6 °F 83.2 °F 68.0 °F 65% 29.98 in 10.0 mi SSW 5.8 mph - N/A   Clear
11:55 PM 80.6 °F 83.2 °F 68.0 °F 65% 29.99 in 10.0 mi SSW 6.9 mph - N/A   Clear